Regional Weather Roundup
Issued by NWS

Home | Current Version | Previous Version | Text Only | Print | Product List | Glossary Off
Versions: 1 2 3 4 5 6 7 8 9 10 11 12 13 14 15 16 17 18 19 20 21 22 23 24 25 26 27 28 29 30 31 32 33 34 35 36 37 38 39 40 41 42 43 44 45 46 47 48 49 50

000
ASUS43 KLOT 302100
RWRIL

ILLINOIS REGIONAL WEATHER ROUNDUP
NATIONAL WEATHER SERVICE CHICAGO/ROMEOVILLE IL
400 PM CDT WED JUL 30 2014

NOTE: "FAIR" INDICATES FEW OR NO CLOUDS BELOW 12,000 FEET WITH NO
SIGNIFICANT WEATHER AND/OR OBSTRUCTIONS TO VISIBILITY.

* THESE STATIONS ARE NOT UNDER NWS QUALITY CONTROL. THEY ALSO MAY NOT
  REPORT WEATHER SUCH AS PRECIPITATION OR FOG.

ILZ001-002-007-009-015-016-024-302200-
NORTHWEST ILLINOIS

CITY           SKY/WX    TMP DP  RH WIND       PRES   REMARKS
MOLINE         SUNNY     82  57  42 NW10      30.04F HX  82
STERLING*      MOSUNNY   81  61  50 NW10      30.04F HX  81
$$

ILZ003-004-008-010-011-017-018-302200-
NORTH CENTRAL ILLINOIS

CITY           SKY/WX    TMP DP  RH WIND       PRES   REMARKS
ROCKFORD       LGT RAIN  75  56  51 NW10      30.04S
FREEPORT*      MOSUNNY   78  58  51 W12G17    30.06F
$$

ILZ005-006-012>014-019>023-302200-
NORTHEAST ILLINOIS

CITY           SKY/WX    TMP DP  RH WIND       PRES   REMARKS
CHICAGO-OHARE  PTSUNNY   72  57  59 NE10      30.02S
CHICAGO-MIDWAY PTSUNNY   72  60  66 E13       30.02S
AURORA         MOSUNNY   79  58  48 W12       30.03F HX  80
WAUKEGAN       SUNNY     69  56  62 E8        30.03S
DUPAGE AIRPORT MOSUNNY   78  57  48 W10       30.02S
WHEELING       MOSUNNY   73  60  63 NE8       30.04S
NORTHERLY ISL    N/A     67  61  81 NE7         N/A
$$

LMZ740>746-302200-
SOUTHERN LAKE MICHIGAN

STATION/POSITION SKY/WX   TEMP    WIND        PRES    VSBY  WAVE
                          AIR SEA DIR/SP/G                  HT/PER
                          (F)     (DEG/KT/KT) (MB)    (MI)  (FT/S)
SOUTHERN BUOY              58 61  340/  8/ 10 1017.4F         1
WAUKEGAN HARBOR            63      60/  7/  9   N/A
HARRISON CRIB              63      40/ 10/ 11   N/A
BURNHAM HARBOR             67      40/  8/ 10   N/A
CALUMET HARBOR             67      20/  7/ 12 1015.8S
BURNS HARBOR               67      40/ 13/ 14 1017.3S
MICHIGAN CITY              65      20/ 10/ 12   N/A
MICHIGAN CITY 6N           65 70   30/ 10/ 14   N/A           1/ 2
ST. JOSEPH                 63 69  360/  8/ 10   N/A           1/ 3
$$

ILZ025>027-034>036-040-047-049-050-058-095>099-302200-
WEST-CENTRAL ILLINOIS

CITY           SKY/WX    TMP DP  RH WIND       PRES   REMARKS
QUINCY         MOSUNNY   80  56  43 N7        30.07F HX  80
$$

ILZ028>032-037-038-041>044-048-051>054-059>061-302200-
CENTRAL ILLINOIS

CITY           SKY/WX    TMP DP  RH WIND       PRES   REMARKS
DECATUR        MOSUNNY   81  56  42 NW10      30.06F HX  81
PEORIA         MOSUNNY   82  56  40 NW6       30.05F HX  82
SPRINGFIELD    MOSUNNY   81  58  45 NW7       30.06F HX  81
TAYLORVILLE    NOT AVBL
$$

ILZ033-039-045-046-055>057-062-063-302200-
EAST-CENTRAL ILLINOIS

CITY           SKY/WX    TMP DP  RH WIND       PRES   REMARKS
CHAMPAIGN      MOSUNNY   79  60  52 W12       30.05F HX  80
MATTOON        MOSUNNY   79  59  50 W8        30.05F HX  80
$$

ILZ079-100>102-302200-
SOUTHWEST ILLINOIS

CITY           SKY/WX    TMP DP  RH WIND       PRES   REMARKS
ALTON          MOSUNNY   81  55  41 W7        30.06F HX  80
BELLEVILLE     PTSUNNY   81  56  43 VRB2      30.05F HX  81
CAHOKIA*       PTSUNNY   84  54  35 VRB6      30.05F HX  83
SPARTA*        PTSUNNY   79  61  53 S7        30.07F HX  80
$$

ILZ064>066-069>071-074>076-080>082-084>086-088>090-092>094-302200-
SOUTH-CENTRAL ILLINOIS

CITY           SKY/WX    TMP DP  RH WIND       PRES   REMARKS
CARBONDALE     CLOUDY    77  62  59 S10       30.08F
MT. VERNON     MOSUNNY   82  57  42 SW9       30.07F HX  82
$$

ILZ067-068-072-073-078-083-087-091-302200-
SOUTHEAST ILLINOIS

CITY           SKY/WX    TMP DP  RH WIND       PRES   REMARKS
LAWRENCEVILLE  MOSUNNY   81  59  47 W10       30.06F HX  81
$$

ABBREVIATIONS USED IN REMARKS
   TC - TEMPERATURE IN CELSIUS
  WCI - WIND CHILL INDEX
   HX - HEAT INDEX
  VSB - VISIBILITY
$$



USA.gov is the U.S. government's official web portal to all federal, state and local government web resources and services.